Retour au catalogue

STARLINK-2594

ActifCommunicationsVLEO
NORAD 48388·PAYLOAD·🇺🇸 United States

Lancé May 4, 2021 depuis Cape Canaveral Space Force Station

Loading…

Prochains Passages (prochaines 24 heures)

TLE

FraisSource: CelesTrak SupGP

Époque: Sep 14, 2026, 20:44 UTC

1 48388C 21038AM  26257.86437500 -.00006199  00000+0 -19916-3 0  2572
2 48388  53.1606 184.9479 0001430  95.2328 315.0449 15.31732065    13

Suivez STARLINK-2594 en temps réel avec AllMySat

Download on the App Store